Weather History for Ukiah, CA

Change the Weather History Date:

Thursday, December 6, 2012

  Actual Average Record
Temperature  
Mean Temperature 48 °F 46 °F  
Max Temperature 57 °F 56 °F 78 °F (1925)
Min Temperature 39 °F 36 °F 20 °F (2013)
Degree Days  
Heating Degree Days 17 19  
Month to date heating degree days 76 112  
Since 1 July heating degree days 519 735  
Cooling Degree Days 0 0  
Month to date cooling degree days 0 0  
Year to date cooling degree days 983 835  
Moisture  
Dew Point 45 °F    
Average Humidity 79    
Maximum Humidity 96    
Minimum Humidity 62    
Precipitation  
Precipitation T in 0.19 in 2.19 in (1987)
Month to date precipitation 4.80 0.97  
Year to date precipitation 33.64 31.37  
Since 1 July precipitation 14.72 7.99  
Snow  
Snow 0.00 in - - ()
Month to date snowfall 0.0  
Since 1 July snowfall 0.0  
Snow Depth 0.00 in    
Sea Level Pressure  
Sea Level Pressure 30.13 in    
Wind  
Wind Speed 2 mph (NNW)    
Max Wind Speed 9 mph    
Max Gust Speed 13 mph    
Visibility 10 miles    
Events Rain    
T = Trace of Precipitation, MM = Missing Value Source: NWS Daily Summary

Daily Weather History Graph

Daily Weather History Graph

Search for Another Location

Airport:

Trip Planner

Search our weather history database for the weather conditions in past years. The results will help you decide how hot, cold, wet, or windy it might be!

Date:

Astronomy

Dec. 06, 2012 Rise Set
Actual Time 7:18 AM PST 4:49 PM PST
Civil Twilight 6:48 AM PST 5:19 PM PST
Nautical Twilight 6:15 AM PST 5:53 PM PST
Astronomical Twilight 5:42 AM PST 6:25 PM PST
Moon No Moon Rise 12:16 PM PST (12/6)
Length of Visible Light 10h 31m
Length of Day
9h 31m
Waning Gibbous, 48% of the Moon is Illuminated
Dec 6
Waning Gibbous
Dec 13
New
Dec 19
First Quarter
Dec 28
Full
Jan 4
Last Quarter

Hourly Weather History & Observations

Time (PST) Temp. Dew Point Humidity Pressure Visibility Wind Dir Wind Speed Gust Speed Precip Events Conditions
12:56 AM 52.0 °F 50.0 °F 93% 30.13 in 10.0 mi Calm Calm - N/A   Overcast
1:47 AM 51.8 °F 48.2 °F 88% 30.13 in 10.0 mi Variable 3.5 mph - N/A   Overcast
1:56 AM 52.0 °F 48.0 °F 86% 30.13 in 10.0 mi Calm Calm - N/A   Overcast
2:56 AM 50.0 °F 48.9 °F 96% 30.12 in 3.0 mi Calm Calm - 0.00 in Rain Light Rain
3:56 AM 50.0 °F 46.9 °F 89% 30.12 in 10.0 mi South 3.5 mph - 0.00 in   Overcast
4:24 AM 50.0 °F 48.2 °F 94% 30.12 in 10.0 mi Calm Calm - N/A   Overcast
4:56 AM 48.9 °F 46.9 °F 93% 30.11 in 10.0 mi Calm Calm - N/A   Mostly Cloudy
5:10 AM 48.2 °F 48.2 °F 100% 30.12 in 10.0 mi Calm Calm - N/A   Mostly Cloudy
5:56 AM 48.9 °F 46.9 °F 93% 30.11 in 10.0 mi Calm Calm - N/A   Overcast
6:56 AM 50.0 °F 46.9 °F 89% 30.12 in 10.0 mi Calm Calm - N/A   Overcast
7:56 AM 50.0 °F 46.9 °F 89% 30.13 in 10.0 mi Calm Calm - N/A   Overcast
8:56 AM 51.1 °F 46.9 °F 86% 30.14 in 10.0 mi Calm Calm - N/A   Overcast
9:56 AM 51.1 °F 46.9 °F 86% 30.16 in 10.0 mi Calm Calm - N/A   Overcast
10:56 AM 52.0 °F 45.0 °F 77% 30.16 in 10.0 mi NW 5.8 mph - N/A   Overcast
11:56 AM 53.1 °F 44.1 °F 71% 30.14 in 10.0 mi Variable 3.5 mph - N/A   Overcast
12:56 PM 54.0 °F 44.1 °F 69% 30.12 in 10.0 mi NE 4.6 mph - N/A   Overcast
1:56 PM 55.9 °F 44.1 °F 64% 30.10 in 10.0 mi Calm Calm - N/A   Mostly Cloudy
2:56 PM 57.0 °F 45.0 °F 64% 30.09 in 10.0 mi Calm Calm - N/A   Scattered Clouds
3:56 PM 55.0 °F 45.0 °F 69% 30.09 in 10.0 mi WNW 8.1 mph - N/A   Scattered Clouds
4:05 PM 55.4 °F 44.6 °F 67% 30.10 in 10.0 mi WNW 5.8 mph - N/A   Mostly Cloudy
4:56 PM 53.1 °F 44.1 °F 71% 30.11 in 10.0 mi NNE 5.8 mph - N/A   Scattered Clouds
5:56 PM 51.1 °F 43.0 °F 74% 30.12 in 10.0 mi NNE 4.6 mph - N/A   Clear
6:56 PM 46.9 °F 43.0 °F 86% 30.13 in 10.0 mi Calm Calm - N/A   Clear
7:56 PM 45.0 °F 43.0 °F 93% 30.15 in 9.0 mi Calm Calm - N/A   Clear
8:56 PM 43.0 °F 41.0 °F 93% 30.16 in 10.0 mi Calm Calm - N/A   Clear
9:56 PM 43.0 °F 41.0 °F 93% 30.17 in 9.0 mi Calm Calm - N/A   Clear
10:56 PM 41.0 °F 39.9 °F 96% 30.17 in 8.0 mi Calm Calm - N/A   Clear
11:56 PM 39.0 °F 37.9 °F 96% 30.17 in 6.0 mi Calm Calm - 0.01 in   Clear